[[{"header":{"parameterUnit":"m.s-1","parameterCategory":1,"la1":30.2991,"la2":30.254,"lo1":-89.0895,"lo2":-89.0444,"dy":0.0017,"dx":0.0017,"nx":28,"ny":28,"refTime":"2024-07-24T09:00:00:Z","depth":0,"parameterNumber":2,"parameterNumberName":"U-component_of_WINDS"},"data":[0,0,0,0,0,0,0,0,0,0,0,0,0,0,0,0,0,0,0,0,0,0,0,0,0,0,0,0,0,0,0,0,0,0,0,0,0,0,0,0,0,0,0,0,0,0,0,0,0,0,0,0,0,0,0,0,0,0,0.8321,0.8322,0,0.8445,0.8446,0.8447,0.8513,0.8513,0.8513,0.8513,0.8641,0.8645,0.8648,0,0,0,0,0,0,0,0,0,0,0,0,0,0.8143,0.8146,0.8321,0.8322,0.8324,0.8444,0.8446,0.8448,0.8513,0.8513,0.8513,0.8513,0.864,0.8644,0.8648,0,0,0,0,0,0,0,0,0,0,0,0,0,0.8239,0.8147,0.8321,0.8371,0.8377,0.8444,0.8446,0.8448,0.8513,0.8513,0.8513,0.8513,0.8639,0.8644,0.8649,0.8676,0,0,0.8664,0.8666,0,0,0,0,0,0,0,0,0.8233,0.8245,0.8362,0.8368,0.8374,0.8464,0.843,0.8525,0.8513,0.8461,0.8513,0.8514,0.8582,0.8592,0.8615,0.8682,0.8687,0.8664,0.8667,0.8669,0.8671,0,0,0,0,0,0,0,0.8226,0.824,0.837,0.8364,0.8371,0.8388,0.8402,0.8448,0.8519,0.8466,0.8471,0.8484,0.8586,0.861,0.8618,0.8689,0.8664,0.8669,0.8672,0.8674,0.8785,0.8786,0,0,0,0,0,0,0.8211,0.8234,0.8366,0.8374,0.8303,0.8391,0.8406,0.8435,0.8519,0.8532,0.8484,0.8487,0.8601,0.8612,0.8623,0.866,0.8669,0.8674,0.8677,0.8785,0.8786,0.8786,0,0,0,0,0,0,0.8207,0.8222,0.8361,0.8305,0.8324,0.8394,0.8425,0.8437,0.8461,0.8533,0.8546,0.8496,0.8602,0.8616,0.8662,0.8666,0.8676,0.8681,0.8785,0.8785,0.8786,0.8735,0,0,0,0,0,0,0.8202,0.8221,0.8231,0.8305,0.8327,0.8397,0.8425,0.8439,0.8469,0.8474,0.8547,0.8559,0.8603,0.8654,0.8667,0.8673,0.8685,0.8785,0.8785,0.8786,0.8737,0.8733,0.873,0,0,0,0,0,0.8195,0.8212,0.8231,0.8247,0.8341,0.8397,0.841,0.8459,0.8469,0.8481,0.8527,0.8557,0.8663,0.8659,0.8674,0.8681,0.8785,0.8785,0.8785,0.8738,0.8734,0.873,0,0,0,0,0,0,0.8137,0.8223,0.8245,0.8286,0.8334,0.8408,0.8424,0.8453,0.85,0.8502,0.8562,0.8578,0.8619,0.8655,0.8648,0.8712,0.8728,0.8731,0.8686,0.8683,0.868,0.867,0.8689,0,0,0,0,0,0.8129,0.8167,0.824,0.8269,0.8292,0.8354,0.838,0.8414,0.8466,0.8487,0.8537,0.8586,0.8631,0.8659,0.8704,0.8742,0.8759,0.8755,0.8752,0.8749,0.875,0.8773,0.8772,0.8786,0.8786,0.8786,0,0,0.8113,0.8164,0.8185,0.8259,0.83,0.8338,0.837,0.841,0.8439,0.8493,0.854,0.8578,0.8637,0.868,0.8701,0.8711,0.8751,0.8749,0.8746,0.8749,0.8773,0.8772,0.8771,0.8786,0.8786,0.8786,0,0,0.8103,0.8145,0.8175,0.8215,0.8277,0.8318,0.8325,0.8395,0.8422,0.847,0.8512,0.8548,0.8623,0.8664,0.8695,0.8701,0.873,0.8714,0.8697,0.8719,0.8718,0.8717,0.8719,0.8719,0.8716,0.8715,0.8715,0,0.8074,0.8133,0.8186,0.8223,0.8254,0.8305,0.8336,0.8373,0.8446,0.8467,0.8477,0.8573,0.8617,0.8669,0.8671,0.8694,0.8704,0.8706,0.8714,0.8714,0.8714,0.8717,0.8717,0.8713,0.8713,0.8714,0.8714,0,0.8096,0.8136,0.8153,0.8222,0.8256,0.8289,0.8347,0.8375,0.8406,0.8446,0.8494,0.8549,0.8606,0.8621,0.8652,0.8678,0.8682,0.8702,0.872,0.8709,0.8713,0.8714,0.871,0.871,0.8711,0.8712,0,0,0.8052,0.815,0.8155,0.8187,0.826,0.8292,0.8328,0.8384,0.8406,0.8456,0.8487,0.855,0.857,0.8604,0.8641,0.866,0.8661,0.8678,0.868,0.8672,0.8693,0.8677,0.8677,0.8681,0.8682,0.8682,0.8688,0,0.8051,0.8118,0.8166,0.8214,0.8252,0.8302,0.8333,0.8381,0.842,0.8458,0.8502,0.8545,0.8567,0.8589,0.861,0.8656,0.8666,0.8657,0.8712,0.8713,0.8694,0.8679,0.8663,0.8666,0.869,0.869,0.869,0,0.806,0.8107,0.8158,0.8227,0.8245,0.8272,0.8327,0.8364,0.8419,0.8446,0.8485,0.8522,0.8563,0.8577,0.8634,0.8627,0.8652,0.8679,0.868,0.8687,0.87,0.8685,0.8668,0.8668,0.8693,0.8693,0.8693,0,0.8021,0.8098,0.8139,0.8165,0.8247,0.8265,0.8299,0.8355,0.8386,0.8434,0.8455,0.8507,0.8536,0.8576,0.8627,0.8632,0.8679,0.8697,0.8703,0.8701,0.871,0.8708,0.8696,0.8727,0.8727,0.8727,0.8727,0,0.8016,0.8045,0.8123,0.8148,0.8183,0.8239,0.8272,0.8311,0.8361,0.8395,0.8441,0.8472,0.8537,0.8576,0.8617,0.8658,0.8671,0.8694,0.8704,0.8689,0.8686,0.8706,0.8707,0.8727,0.8727,0.8727,0.8727,0,0.7978,0.8032,0.808,0.8153,0.8172,0.8194,0.8258,0.8284,0.8326,0.8368,0.8381,0.8447,0.8495,0.855,0.8616,0.8644,0.8682,0.8697,0.8663,0.8668,0.8671,0.8669,0.867,0.8673,0.8702,0.8702,0.8701,0,0.797,0.7994,0.807,0.8096,0.813,0.8171,0.8203,0.8259,0.829,0.8356,0.8374,0.8426,0.8471,0.8546,0.86,0.8651,0.8667,0.8664,0.8675,0.866,0.8667,0.8665,0.8667,0.8661,0.866,0.866,0.8659,0,0.7951,0.7977,0.802,0.8073,0.8109,0.8153,0.8199,0.8218,0.8284,0.8317,0.8367,0.8401,0.8469,0.852,0.8578,0.8615,0.8648,0.8655,0.8659,0.8644,0.8623,0.8634,0.8653,0.8655,0.8655,0.8656,0.8656,0.8656,0.7928,0.7952,0.8009,0.8056,0.8097,0.8139,0.8168,0.8213,0.8256,0.8315,0.8347,0.8396,0.8452,0.8534,0.8569,0.8609,0.862,0.8626,0.8627,0.8628,0.8623,0.8617,0.862,0.862,0.8621,0.8621,0.8621,0,0.7911,0.795,0.7993,0.8056,0.8093,0.8122,0.8175,0.8204,0.8246,0.8296,0.8339,0.8397,0.8447,0.8504,0.8558,0.8579,0.8596,0.8591,0.859,0.8598,0.8611,0.8602,0.8577,0.8577,0.8577,0.8577,0.8577,0.8577,0.7906,0.7947,0.798,0.8042,0.8082,0.8131,0.8159,0.8198,0.8238,0.83,0.8342,0.8379,0.8433,0.8491,0.8538,0.8554,0.8571,0.8562,0.8582,0.8593,0.8597,0.86,0.8592,0.8566,0.8566,0.8566,0.8566,0.8566]},{"header":{"parameterUnit":"m.s-1","parameterCategory":1,"la1":30.2991,"la2":30.254,"lo1":-89.0895,"lo2":-89.0444,"dy":0.0017,"dx":0.0017,"nx":28,"ny":28,"refTime":"2024-07-24T09:00:00:Z","depth":0,"parameterNumber":3,"parameterNumberName":"V-component_of_WINDS"},"data":[0,0,0,0,0,0,0,0,0,0,0,0,0,0,0,0,0,0,0,0,0,0,0,0,0,0,0,0,0,0,0,0,0,0,0,0,0,0,0,0,0,0,0,0,0,0,0,0,0,0,0,0,0,0,0,0,0,0,2.8849,2.885,0,2.8936,2.8937,2.8938,2.898,2.8979,2.8979,2.8979,2.9065,2.9067,2.9069,0,0,0,0,0,0,0,0,0,0,0,0,0,2.8713,2.8715,2.8849,2.885,2.8851,2.8936,2.8937,2.8938,2.898,2.8979,2.8979,2.8979,2.9064,2.9066,2.9069,0,0,0,0,0,0,0,0,0,0,0,0,0,2.8783,2.8716,2.8848,2.8882,2.8886,2.8936,2.8937,2.8939,2.898,2.8979,2.8979,2.8979,2.9063,2.9066,2.907,2.9092,0,0,2.908,2.9082,0,0,0,0,0,0,0,0,2.8779,2.8788,2.8876,2.888,2.8884,2.8947,2.8921,2.899,2.898,2.8944,2.8979,2.8979,2.9025,2.9032,2.9048,2.9096,2.91,2.908,2.9083,2.9084,2.9085,0,0,0,0,0,0,0,2.8774,2.8784,2.8883,2.8877,2.8882,2.8891,2.8901,2.8934,2.8983,2.8947,2.895,2.896,2.9027,2.9045,2.905,2.9101,2.908,2.9083,2.9086,2.9087,2.9172,2.9172,0,0,0,0,0,0,2.8764,2.878,2.888,2.8886,2.883,2.8893,2.8905,2.8927,2.8983,2.8992,2.896,2.8962,2.9039,2.9046,2.9054,2.9084,2.9084,2.9087,2.9089,2.9172,2.9172,2.9172,0,0,0,0,0,0,2.8761,2.8773,2.8877,2.8834,2.8848,2.8896,2.892,2.8928,2.8946,2.8993,2.9002,2.8969,2.9039,2.9049,2.9083,2.9088,2.9089,2.9092,2.9172,2.9172,2.9172,2.9145,0,0,0,0,0,0,2.8757,2.8772,2.8782,2.8834,2.885,2.8906,2.8921,2.893,2.8952,2.8955,2.9004,2.9012,2.904,2.9077,2.9086,2.9092,2.9095,2.9171,2.9172,2.9172,2.9146,2.9144,2.9143,0,0,0,0,0,2.8752,2.8769,2.8782,2.8794,2.8864,2.8906,2.8915,2.8948,2.8953,2.8962,2.8993,2.901,2.9086,2.908,2.9091,2.9098,2.9171,2.9172,2.9172,2.9146,2.9145,2.9143,0,0,0,0,0,0,2.8715,2.8777,2.8791,2.8826,2.8861,2.8913,2.8926,2.8945,2.8978,2.8979,2.9017,2.9027,2.9058,2.9081,2.9074,2.9123,2.913,2.9132,2.9107,2.9106,2.9104,2.9098,2.9097,0,0,0,0,0,2.8711,2.8741,2.8793,2.8819,2.8835,2.8878,2.8897,2.892,2.8956,2.8971,2.9004,2.9037,2.9069,2.9088,2.912,2.9149,2.916,2.9159,2.9158,2.9157,2.9158,2.9176,2.9176,2.9174,2.9174,2.9174,0,0,2.8702,2.874,2.8756,2.8812,2.8841,2.8871,2.889,2.892,2.8942,2.8975,2.901,2.9035,2.9075,2.9107,2.9122,2.9127,2.9162,2.9157,2.9156,2.9158,2.9177,2.9177,2.9177,2.9174,2.9174,2.9174,0,0,2.8702,2.8734,2.8759,2.8788,2.8833,2.8861,2.8867,2.8917,2.8936,2.8971,2.8997,2.9023,2.9076,2.9103,2.9124,2.9135,2.9153,2.9144,2.9138,2.9155,2.9155,2.9155,2.9159,2.916,2.9146,2.9146,2.9146,0,2.8685,2.8733,2.8769,2.8799,2.8822,2.8855,2.888,2.8906,2.8958,2.8973,2.8978,2.9046,2.9075,2.9114,2.9117,2.9133,2.914,2.9139,2.9152,2.9153,2.9154,2.9158,2.916,2.9144,2.9144,2.9145,2.9145,0,2.871,2.8742,2.8757,2.8809,2.8834,2.886,2.89,2.8921,2.8941,2.8968,2.9004,2.904,2.908,2.9091,2.911,2.9133,2.9134,2.9145,2.9153,2.9152,2.9157,2.9159,2.9143,2.9143,2.9143,2.9144,0,0,2.8689,2.8761,2.8766,2.879,2.8842,2.8867,2.8895,2.8935,2.8952,2.8987,2.9011,2.9056,2.9066,2.909,2.9113,2.9127,2.9134,2.9136,2.9138,2.9135,2.9162,2.9154,2.9155,2.9146,2.9146,2.9147,2.9159,0,2.8696,2.875,2.8784,2.8824,2.8854,2.8886,2.891,2.8944,2.897,2.8998,2.9027,2.9058,2.9069,2.9084,2.91,2.913,2.914,2.913,2.9168,2.9169,2.9158,2.9158,2.9149,2.9159,2.9161,2.9161,2.9161,0,2.8712,2.8748,2.8792,2.8841,2.8855,2.8877,2.8917,2.8944,2.8982,2.9,2.9027,2.9051,2.9081,2.9086,2.9127,2.9119,2.9137,2.9154,2.9155,2.9161,2.9165,2.9163,2.9163,2.9164,2.9165,2.9164,2.9164,0,2.8693,2.8752,2.8786,2.8805,2.8864,2.8878,2.8903,2.8942,2.8964,2.8998,2.9013,2.905,2.907,2.9097,2.9129,2.913,2.9168,2.9175,2.9183,2.9182,2.919,2.9189,2.9192,2.92,2.92,2.92,2.92,0,2.8698,2.8724,2.8778,2.8799,2.8828,2.8866,2.8893,2.892,2.8955,2.8981,2.9009,2.9033,2.9074,2.9102,2.9127,2.9158,2.9166,2.9181,2.9187,2.9179,2.9177,2.9191,2.9192,2.9201,2.92,2.92,2.92,0,2.8682,2.8719,2.8759,2.8811,2.8825,2.8844,2.8889,2.8909,2.8937,2.897,2.8979,2.9022,2.9057,2.9092,2.9138,2.9155,2.9185,2.9194,2.9173,2.9176,2.9182,2.9181,2.9195,2.9199,2.9204,2.9203,2.9203,0,2.8683,2.8704,2.8759,2.8779,2.8804,2.8836,2.8859,2.8897,2.892,2.8966,2.8981,2.9018,2.905,2.9103,2.9138,2.9173,2.9183,2.9186,2.9189,2.918,2.9184,2.9183,2.9185,2.9184,2.9184,2.9184,2.9184,0,2.8681,2.8699,2.8733,2.8773,2.88,2.8833,2.8867,2.8882,2.8926,2.895,2.8987,2.9011,2.9059,2.9096,2.9135,2.9159,2.9179,2.9183,2.9187,2.9178,2.9166,2.9173,2.917,2.9182,2.9182,2.9183,2.9183,2.9183,2.8674,2.8694,2.8737,2.8773,2.8803,2.8834,2.8857,2.8888,2.892,2.8963,2.8983,2.902,2.9058,2.9113,2.9137,2.9166,2.9171,2.9176,2.9178,2.9178,2.9177,2.9161,2.9173,2.9173,2.9173,2.9173,2.9173,0,2.8674,2.8703,2.8737,2.8784,2.8813,2.883,2.8868,2.8891,2.8923,2.8958,2.8989,2.9031,2.9067,2.9105,2.9142,2.9158,2.9168,2.9166,2.9166,2.9171,2.917,2.9163,2.9158,2.9158,2.9158,2.9158,2.9158,2.9158,2.8678,2.8713,2.8736,2.8786,2.8815,2.8852,2.8873,2.8901,2.893,2.8976,2.9006,2.9031,2.9067,2.9108,2.9141,2.9151,2.9163,2.916,2.9172,2.917,2.9171,2.9172,2.9166,2.9162,2.9162,2.9172,2.9172,2.9172]}]]